Погода в Мухино

Россия / Амурская область     52°16′21″N   127°12′45″E
темп.,
°C
ветер,
м/с
пор.,
м/с
влажн.,
%
обл.,
%
осадки,
мм/ч
давл.,
гПа
погр.,
м
13 июня, вс
вс1300:00+14юв117799 0.0 100811
03:00+14вюв338164 0.0 100922
06:00+14вюв467298 0.0 1009157
09:00+20вюв555022 0.0 1009463
12:00+25юв444052 0.0 10081312
15:00+27ююв333571 0.0 10062100
18:00+26юв44396 0.0 10061963
21:00+16ю36845 0.0 1007112
14 июня, пн
пн1400:00+16юв23785 0.0 100726
03:00+16ююв41069100 0.0 1007184
06:00+17ююв41171100 0.1 1007277
09:00+23ю574630 0.1 1006608
12:00+27ююв5638100 0.0 10041684
15:00+28ююв6738100 0.0 10031914
18:00+25ююв6950100 0.0 1001994
21:00+21ююв51170100 0.0 1002302
15 июня, вт
вт1500:00+18ююв41192100 0.7 1002250
03:00+17ююв4894100 1.6 1001166
06:00+17ю51395100 2.5 1001511
09:00+18ю61096100 3.7 1002513
12:00+17ю51297100 6.3 1002912
15:00+16ю61396100 15.0 1001750
18:00+16ююз51297100 7.0 1001632
21:00+16ю41098100 8.4 1001453
16 июня, ср
ср1600:00+16ююз61196100 0.0 1002552
03:00+15ююз5109883 0.1 1001273
06:00+15юз3598100 0.0 1003187
09:00+18зсз3482100 0.0 1004384
12:00+21з1255100 0.0 1004885
15:00+23ю0148100 0.0 10031168
18:00+22ю1164100 0.1 100334
21:00+16юв3590100 1.1 1004106
17 июня, чт
чт1700:00+14св3690100 1.1 1003116
03:00+14в31091100 1.9 1001245
06:00+15в61296100 0.6 999442
09:00+17вюв71297100 1.1 997648
12:00+18вюв71391100 2.8 994560
15:00+22юв91581100 5.4 9921278
18:00+18ююв91794100 6.9 992909
21:00+17ююв71296100 10.9 993698